CW3066 Weather Reports


time (UTC)temp
C
wind
direction
speed
KPH
gust
KPH
rain 1hr
cm
rain 24hr
cm
rain mn
cm
humidity
%
barometer
mb
20260903043005 24 350 0.0 0.0 0.00 0.00 0.00 88 1010.4
20260903041506 24 350 0.0 0.0 0.00 0.00 0.00 87 1010.5
20260903040008 25 350 0.0 0.0 0.00 0.00 0.00 86 1010.5
20260903034505 25 350 0.0 0.0 0.00 0.00 0.00 84 1010.5
20260903033004 25 350 0.0 0.0 0.00 0.00 0.00 84 1010.7
20260903031504 25 350 0.0 0.0 0.00 0.00 0.00 83 1010.7
20260903030006 25 350 0.0 0.0 0.00 0.00 0.00 83 1010.7
20260903024502 26 350 0.0 0.0 0.00 0.00 0.00 81 1010.7
20260903023003 26 350 0.0 0.0 0.00 0.00 0.00 80 1010.7
20260903021502 26 350 0.0 0.0 0.00 0.00 0.00 79 1010.8
20260903020004 26 350 0.0 0.0 0.00 0.00 0.00 77 1010.7
20260903014603 26 350 0.0 0.0 0.00 0.00 0.00 74 1010.8
20260903013100 27 350 0.0 0.0 0.00 0.00 0.00 71 1010.7
20260903011606 27 350 0.0 0.0 0.00 0.00 0.00 70 1010.3
20260903010059 28 350 0.0 0.0 0.00 0.00 0.00 67 1010.3
20260903004558 28 350 0.0 0.0 0.00 0.00 0.00 64 1010.2
20260903003058 30 350 0.0 0.0 0.00 0.00 0.00 60 1010.2
20260903001557 31 350 0.0 0.0 0.00 0.00 0.00 56 1010.3
20260903000059 31 350 0.0 0.0 0.00 0.00 0.00 51 1010.3
20260902234605 33 350 0.0 0.0 0.00 0.00 0.00 46 1010.3
20260902233056 33 350 0.0 0.0 0.00 0.00 0.00 40 1010.3
20260902231600 34 350 0.0 0.0 0.00 0.00 0.00 38 1010.3
20260902230054 34 350 0.0 0.0 0.00 0.00 0.00 37 1010.4
20260902224553 34 350 0.0 4.8 0.00 0.00 0.00 37 1010.4
20260902223058 35 298 0.0 4.8 0.00 0.00 0.00 36 1010.6
20260902221552 35 355 0.0 6.4 0.00 0.00 0.00 36 1010.7
20260902220051 35 351 0.0 6.4 0.00 0.00 0.00 38 1010.7
20260902214550 35 350 0.0 6.4 0.00 0.00 0.00 37 1010.7
20260902213049 35 346 0.0 4.8 0.00 0.00 0.00 37 1010.8
20260902211550 35 350 0.0 3.2 0.00 0.00 0.00 38 1010.8
20260902210048 35 355 0.0 4.8 0.00 0.00 0.00 37 1010.8
20260902204547 35 351 0.0 3.2 0.00 0.00 0.00 38 1010.9
20260902203046 35 350 0.0 3.2 0.00 0.00 0.00 38 1011.0
20260902201556 35 350 0.0 6.4 0.00 0.00 0.00 38 1011.3
20260902200044 35 218 0.0 6.4 0.00 0.00 0.00 37 1011.3
20260902194541 35 348 0.0 3.2 0.00 0.00 0.00 35 1011.5
20260902193040 35 355 0.0 3.2 0.00 0.00 0.00 39 1011.7
20260902191540 35 355 0.0 3.2 0.00 0.00 0.00 39 1011.8
20260902190039 35 355 0.0 3.2 0.00 0.00 0.00 39 1011.9
20260902184537 34 348 0.0 6.4 0.00 0.00 0.00 38 1011.9
20260902183036 34 350 0.0 6.4 0.00 0.00 0.00 42 1011.9
20260902181549 34 355 0.0 6.4 0.00 0.00 0.00 41 1012.1
20260902180035 34 355 0.0 4.8 0.00 0.00 0.00 43 1012.3
20260902174532 34 355 0.0 6.4 0.00 0.00 0.00 42 1012.4
20260902173041 33 350 0.0 4.8 0.00 0.00 0.00 45 1012.6
20260902171530 33 355 0.0 4.8 0.00 0.00 0.00 44 1012.8
20260902170029 33 355 0.0 4.8 0.00 0.00 0.00 45 1012.9
20260902164527 33 355 0.0 6.4 0.00 0.00 0.00 45 1013.0
20260902163026 33 355 0.0 3.2 0.00 0.00 0.00 47 1013.1
20260902161526 33 350 0.0 4.8 0.00 0.00 0.00 47 1013.2
20260902160024 32 355 0.0 1.6 0.00 0.00 0.00 48 1013.4
20260902154526 32 355 0.0 3.2 0.00 0.00 0.00 50 1013.3
20260902153021 32 350 1.6 4.8 0.00 0.00 0.00 52 1013.3
20260902151520 32 355 0.0 1.6 0.00 0.00 0.00 52 1013.1
20260902150018 31 350 0.0 1.6 0.00 0.00 0.00 56 1013.0
20260902144513 30 350 0.0 3.2 0.00 0.00 0.00 61 1013.0
20260902143008 29 345 0.0 0.0 0.00 0.00 0.00 63 1013.2
20260902141505 28 345 0.0 3.2 0.00 0.00 0.00 67 1013.0
20260902134556 25 350 0.0 0.0 0.00 0.00 0.00 81 1013.0
20260902133104 24 350 0.0 0.0 0.00 0.00 0.00 93 1013.0
20260902131552 23 350 0.0 0.0 0.00 0.00 0.00 98 1012.9
20260902130053 23 350 0.0 0.0 0.00 0.00 0.00 100 1013.0
20260902124549 22 350 0.0 0.0 0.00 0.00 0.00 100 1013.0
20260902123053 22 350 0.0 0.0 0.00 0.00 0.00 100 1012.9
20260902121547 21 350 0.0 0.0 0.00 0.00 0.00 100 1012.7
20260902120048 21 350 0.0 0.0 0.00 0.00 0.00 100 1012.5
20260902114552 21 350 0.0 0.0 0.00 0.00 0.00 99 1012.4
20260902113045 21 350 0.0 0.0 0.00 0.00 0.00 99 1012.3
20260902111547 21 350 0.0 0.0 0.00 0.00 0.00 99 1012.1
20260902110058 21 350 0.0 0.0 0.00 0.00 0.00 99 1012.1
20260902104541 21 350 0.0 0.0 0.00 0.00 0.00 98 1011.9
20260902103019 21 350 0.0 0.0 0.00 0.00 0.00 98 1012.0
20260902064525 22 350 0.0 0.0 0.00 0.00 0.00 95 1011.4
20260902063025 22 350 0.0 0.0 0.00 0.00 0.00 95 1011.7
20260902061512 22 350 0.0 0.0 0.00 0.00 0.00 95 1011.7
20260902060010 23 350 0.0 0.0 0.00 0.00 0.00 94 1011.7
20260902054518 23 350 0.0 0.0 0.00 0.00 0.00 94 1011.6
20260902053017 23 350 0.0 0.0 0.00 0.00 0.00 94 1011.6
20260902051506 23 350 0.0 0.0 0.00 0.00 0.00 93 1011.5
20260902050007 23 350 0.0 0.0 0.00 0.00 0.00 93 1011.5
20260902044503 23 350 0.0 0.0 0.00 0.00 0.00 93 1011.4